EW6122 Weather Reports


Display with metric or nautical units.
time (UTC)temp
F
wind
direction
speed
MPH
gust
MPH
rain 1hr
in
rain 24hr
in
rain mn
in
humidity
%
barometer
mb
20260504150104 64 236 10.0 24.0 0.00 0.00 0.00 33 1009.3
20260504081531 38 229 2.0 6.0 0.00 0.00 0.00 82 1009.9
20260504081506 38 229 2.0 5.0 0.00 0.00 0.00 82 1009.8
20260504044549 36 248 0.0 0.0 0.00 0.00 0.00 82 1010.0
20260504044540 36 0 0.0 0.0 0.00 0.00 0.00 82 1010.1
20260504043056 36 248 0.0 1.0 0.00 0.00 0.00 81 1010.1
20260504043032 36 0 0.0 1.0 0.00 0.00 0.00 80 1010.2
20260504041545 37 248 0.0 0.0 0.00 0.00 0.00 80 1010.0
20260504041531 37 0 0.0 0.0 0.00 0.00 0.00 79 1010.0
20260504040042 37 248 0.0 0.0 0.00 0.00 0.00 78 1009.9
20260504040030 37 0 0.0 0.0 0.00 0.00 0.00 78 1009.9
20260504034551 38 0 0.0 0.0 0.00 0.00 0.00 78 1009.9
20260504034540 38 248 0.0 0.0 0.00 0.00 0.00 78 1009.9
20260504033039 38 248 0.0 0.0 0.00 0.00 0.00 78 1009.7
20260504033029 38 0 0.0 1.0 0.00 0.00 0.00 77 1009.7
20260504031538 38 248 0.0 1.0 0.00 0.00 0.00 77 1009.6
20260504031532 38 0 0.0 1.0 0.00 0.00 0.00 77 1009.7
20260504030042 39 0 0.0 0.0 0.00 0.00 0.00 73 1009.7
20260504030036 39 248 0.0 0.0 0.00 0.00 0.00 74 1009.6
20260504024535 40 248 0.0 1.0 0.00 0.00 0.00 74 1009.6
20260504024530 40 0 0.0 1.0 0.00 0.00 0.00 74 1009.7
20260504023035 40 248 0.0 1.0 0.00 0.00 0.00 72 1009.6
20260504023033 40 0 0.0 1.0 0.00 0.00 0.00 72 1009.7
20260504021534 40 0 0.0 1.0 0.00 0.00 0.00 70 1009.7
20260504021532 40 248 0.0 1.0 0.00 0.00 0.00 71 1009.6
20260504020044 41 248 0.0 2.0 0.00 0.00 0.00 70 1009.5
20260504020031 41 0 1.0 2.0 0.00 0.00 0.00 69 1009.7
20260504014541 42 0 0.0 0.0 0.00 0.00 0.00 65 1009.5
20260504014538 42 248 0.0 0.0 0.00 0.00 0.00 66 1009.3
20260504013037 43 248 0.0 0.0 0.00 0.00 0.00 62 1009.3
20260504013033 43 0 0.0 0.0 0.00 0.00 0.00 62 1009.4
20260504011532 45 0 0.0 1.0 0.00 0.00 0.00 56 1009.2
20260504010046 45 248 0.0 0.0 0.00 0.00 0.00 57 1008.8
20260504010030 45 0 0.0 0.0 0.00 0.00 0.00 57 1009.1
20260504004615 46 248 0.0 0.0 0.00 0.00 0.00 54 1008.5
20260504004533 46 0 0.0 0.0 0.00 0.00 0.00 53 1008.7
20260504003050 46 248 0.0 0.0 0.00 0.00 0.00 52 1008.2
20260504003036 46 0 0.0 0.0 0.00 0.00 0.00 51 1008.5
20260504001615 47 248 0.0 0.0 0.00 0.00 0.00 48 1008.1
20260504001532 47 0 0.0 0.0 0.00 0.00 0.00 47 1008.3
20260504000041 49 248 0.0 0.0 0.00 0.00 0.00 45 1007.9
20260504000033 49 0 0.0 0.0 0.00 0.00 0.00 45 1008.1
20260503234540 51 0 0.0 0.0 0.00 0.00 0.00 41 1007.9
20260503234536 51 248 0.0 0.0 0.00 0.00 0.00 41 1007.7
20260503233040 52 293 0.0 0.0 0.00 0.00 0.00 37 1007.6
20260503233033 52 0 0.0 0.0 0.00 0.00 0.00 37 1007.8
20260503231536 54 294 0.0 0.0 0.00 0.00 0.00 35 1007.5
20260503231534 54 0 0.0 0.0 0.00 0.00 0.00 35 1007.6
20260503230106 54 264 0.0 0.0 0.00 0.00 0.00 34 1007.4
20260503230038 54 0 0.0 0.0 0.00 0.00 0.00 33 1007.6
20260503224546 54 253 0.0 0.0 0.00 0.00 0.00 34 1007.4
20260503224531 54 0 0.0 0.0 0.00 0.00 0.00 34 1007.6
20260503223045 55 317 0.0 0.0 0.00 0.00 0.00 35 1007.4
20260503223034 55 0 0.0 0.0 0.00 0.00 0.00 34 1007.6
20260503221544 55 265 0.0 0.0 0.00 0.00 0.00 34 1007.3
20260503221539 55 0 0.0 0.0 0.00 0.00 0.00 33 1007.4
20260503220045 55 267 0.0 0.0 0.00 0.00 0.00 34 1007.3
20260503220030 55 0 0.0 0.0 0.00 0.00 0.00 33 1007.5
20260503214538 55 246 0.0 0.0 0.00 0.00 0.00 34 1007.5
20260503214533 55 0 0.0 0.0 0.00 0.00 0.00 34 1007.7
20260503213041 55 0 0.0 0.0 0.00 0.00 0.00 36 1007.6
20260503213037 55 263 0.0 0.0 0.00 0.00 0.00 37 1007.5
20260503211536 54 257 0.0 0.0 0.00 0.00 0.00 35 1007.4
20260503211531 54 0 0.0 0.0 0.00 0.00 0.00 35 1007.6
20260503210031 54 242 0.0 0.0 0.00 0.00 0.00 38 1007.4
20260503204544 55 0 0.0 0.0 0.00 0.00 0.00 36 1007.3
20260503204530 55 247 0.0 0.0 0.00 0.00 0.00 37 1007.2
20260503203044 53 348 0.0 0.0 0.00 0.00 0.00 36 1007.4
20260503203032 53 0 0.0 0.0 0.00 0.00 0.00 36 1007.5
20260503201532 53 244 0.0 0.0 0.00 0.00 0.00 37 1007.4
20260503201530 53 0 0.0 0.0 0.00 0.00 0.00 37 1007.5
20260503200044 54 283 0.0 0.0 0.00 0.00 0.00 37 1007.3
20260503200034 54 0 0.0 0.0 0.00 0.00 0.00 36 1007.4
20260503194544 52 277 0.0 0.0 0.00 0.00 0.00 37 1007.3
20260503194529 52 0 0.0 0.0 0.00 0.00 0.00 36 1007.5
20260503193042 54 0 0.0 0.0 0.00 0.00 0.00 37 1007.6
20260503191546 53 211 0.0 0.0 0.00 0.00 0.00 39 1007.4
20260503191530 53 0 0.0 0.0 0.00 0.00 0.00 38 1007.5
20260503190041 53 319 0.0 0.0 0.00 0.00 0.00 35 1007.3
20260503190034 54 0 0.0 0.0 0.00 0.00 0.00 35 1007.5
20260503184537 52 0 0.0 0.0 0.00 0.00 0.00 37 1007.3
20260503184534 53 298 0.0 0.0 0.00 0.00 0.00 37 1007.2
20260503183035 53 0 0.0 0.0 0.00 0.00 0.00 37 1007.4
20260503181536 52 346 0.0 0.0 0.00 0.00 0.00 37 1007.3
20260503181529 53 0 0.0 0.0 0.00 0.00 0.00 36 1007.4
20260503180052 54 229 0.0 0.0 0.00 0.00 0.00 37 1007.1
20260503180040 53 0 0.0 0.0 0.00 0.00 0.00 36 1007.3
20260503174546 52 333 0.0 0.0 0.00 0.03 0.00 40 1007.1
20260503174533 52 0 0.0 0.0 0.00 0.03 0.00 39 1007.4
20260503173056 52 0 0.0 0.0 0.00 0.03 0.00 38 1007.6
20260503173042 52 295 0.0 0.0 0.00 0.03 0.00 38 1007.3
20260503171542 51 289 0.0 0.0 0.00 0.03 0.00 42 1007.5
20260503171531 50 0 0.0 0.0 0.00 0.03 0.00 41 1007.7